CGMPW KTEB-KMTP

Flight info

Callsign CGMPW
Flight time 0h 35m
Altitude 17000
Route DAVIM WENTZ RUUDY BREZY V39 CMK T634 BETHA HTO
Aircraft PC24/L-SBDGIRWY/LB2

Departure

Time 2026-05-05 06:07
Airport Teterboro Airport (KTEB)

Arrival

Time 2026-05-05 06:42
Airport Montauk Airport (KMTP)
Time Latitude Longitude Altitude Speed Heading
2026-05-05 06:01 40.85754 -74.05435 13 ft 0 kts 228°
2026-05-05 06:03 40.85750 -74.05442 13 ft 0 kts 228°
2026-05-05 06:05 40.85747 -74.05446 13 ft 11 kts 228°
2026-05-05 06:06 40.85691 -74.05527 14 ft 0 kts 228°
2026-05-05 06:06 40.85507 -74.05800 11 ft 88 kts 229°
2026-05-05 06:06 40.84914 -74.06671 90 ft 164 kts 228°
2026-05-05 06:07 40.83974 -74.07936 711 ft 213 kts 224°
2026-05-05 06:07 40.82864 -74.09421 1642 ft 248 kts 227°
2026-05-05 06:07 40.81594 -74.11215 2401 ft 285 kts 227°
2026-05-05 06:07 40.80505 -74.13448 3064 ft 285 kts 252°
2026-05-05 06:08 40.80475 -74.15868 3686 ft 248 kts 279°
2026-05-05 06:08 40.80819 -74.17950 4298 ft 218 kts 287°
2026-05-05 06:08 40.81291 -74.19867 4926 ft 234 kts 286°
2026-05-05 06:08 40.81830 -74.22068 5601 ft 270 kts 295°
2026-05-05 06:09 40.83064 -74.24115 6280 ft 302 kts 319°
2026-05-05 06:09 40.84932 -74.25394 6937 ft 291 kts 345°
2026-05-05 06:09 40.86772 -74.25554 7550 ft 254 kts
2026-05-05 06:09 40.88520 -74.24948 8187 ft 274 kts 17°
2026-05-05 06:10 40.90416 -74.24137 8854 ft 297 kts 17°
2026-05-05 06:10 40.92465 -74.23270 9293 ft 316 kts 17°
2026-05-05 06:10 40.94604 -74.22381 9311 ft 323 kts 17°
2026-05-05 06:10 40.96740 -74.21491 9310 ft 322 kts 17°
2026-05-05 06:11 40.98867 -74.20601 9560 ft 315 kts 17°
2026-05-05 06:11 41.00911 -74.19747 10071 ft 322 kts 17°
2026-05-05 06:11 41.03054 -74.18849 10598 ft 324 kts 17°
2026-05-05 06:11 41.05217 -74.17944 11125 ft 327 kts 17°
2026-05-05 06:12 41.07402 -74.17026 11652 ft 330 kts 17°
2026-05-05 06:12 41.09578 -74.16116 12171 ft 333 kts 17°
2026-05-05 06:12 41.11774 -74.15119 12690 ft 335 kts 23°
2026-05-05 06:12 41.13775 -74.13511 13211 ft 339 kts 37°
2026-05-05 06:13 41.15475 -74.11331 13724 ft 342 kts 50°
2026-05-05 06:13 41.16762 -74.08661 14249 ft 345 kts 64°
2026-05-05 06:13 41.17576 -74.05659 14770 ft 346 kts 74°
2026-05-05 06:13 41.18253 -74.02571 15306 ft 351 kts 73°
2026-05-05 06:14 41.18950 -73.99449 15834 ft 353 kts 73°
2026-05-05 06:14 41.19644 -73.96303 16358 ft 355 kts 73°
2026-05-05 06:14 41.20331 -73.93182 16836 ft 358 kts 73°
2026-05-05 06:14 41.21038 -73.89969 16999 ft 365 kts 73°
2026-05-05 06:15 41.21751 -73.86740 16996 ft 362 kts 73°
2026-05-05 06:15 41.22455 -73.83527 16993 ft 361 kts 73°
2026-05-05 06:15 41.23160 -73.80326 16994 ft 360 kts 73°
2026-05-05 06:15 41.23861 -73.77131 16993 ft 360 kts 73°
2026-05-05 06:16 41.24562 -73.73935 16993 ft 360 kts 73°
2026-05-05 06:16 41.25261 -73.70739 16993 ft 360 kts 73°
2026-05-05 06:16 41.25959 -73.67543 16993 ft 360 kts 73°
2026-05-05 06:16 41.26658 -73.64345 16993 ft 360 kts 73°
2026-05-05 06:17 41.27354 -73.61143 16993 ft 360 kts 73°
2026-05-05 06:17 41.27884 -73.57905 16986 ft 359 kts 87°
2026-05-05 06:17 41.27617 -73.54657 17002 ft 360 kts 99°
2026-05-05 06:17 41.27201 -73.51351 17011 ft 362 kts 99°
2026-05-05 06:18 41.26800 -73.48038 17011 ft 362 kts 99°
2026-05-05 06:18 41.26243 -73.44785 16989 ft 361 kts 112°
2026-05-05 06:18 41.24874 -73.42007 16998 ft 357 kts 124°
2026-05-05 06:18 41.24003 -73.38962 16993 ft 361 kts 97°
2026-05-05 06:19 41.23996 -73.35628 17007 ft 361 kts 86°
2026-05-05 06:19 41.24181 -73.32296 17011 ft 362 kts 86°
2026-05-05 06:19 41.24259 -73.28959 17009 ft 361 kts 91°
2026-05-05 06:19 41.24017 -73.25637 17005 ft 361 kts 99°
2026-05-05 06:20 41.23523 -73.22372 17007 ft 361 kts 102°
2026-05-05 06:20 41.23015 -73.19101 17007 ft 360 kts 100°
2026-05-05 06:20 41.22658 -73.15841 17006 ft 360 kts 97°
2026-05-05 06:20 41.22329 -73.12545 17006 ft 360 kts 98°
2026-05-05 06:21 41.21935 -73.09263 17007 ft 360 kts 99°
2026-05-05 06:21 41.21523 -73.05968 17007 ft 360 kts 99°
2026-05-05 06:21 41.21137 -73.02672 17007 ft 360 kts 98°
2026-05-05 06:21 41.20755 -72.99388 17007 ft 360 kts 99°
2026-05-05 06:22 41.20365 -72.96107 17007 ft 360 kts 99°
2026-05-05 06:22 41.19977 -72.92862 17007 ft 360 kts 99°
2026-05-05 06:22 41.19583 -72.89574 17007 ft 360 kts 99°
2026-05-05 06:22 41.19192 -72.86287 17007 ft 360 kts 99°
2026-05-05 06:23 41.18797 -72.82997 17008 ft 360 kts 99°
2026-05-05 06:23 41.18629 -72.79701 16993 ft 358 kts 87°
2026-05-05 06:23 41.18774 -72.76388 16998 ft 360 kts 86°
2026-05-05 06:23 41.18913 -72.73057 17001 ft 361 kts 87°
2026-05-05 06:24 41.19048 -72.69729 17003 ft 361 kts 87°
2026-05-05 06:24 41.19179 -72.66428 17003 ft 361 kts 87°
2026-05-05 06:24 41.19315 -72.63102 17003 ft 361 kts 87°
2026-05-05 06:24 41.19447 -72.59776 17003 ft 361 kts 87°
2026-05-05 06:25 41.19580 -72.56446 17003 ft 361 kts 87°
2026-05-05 06:25 41.19710 -72.53122 17003 ft 360 kts 87°
2026-05-05 06:25 41.19840 -72.49797 16998 ft 361 kts 87°
2026-05-05 06:25 41.19970 -72.46442 16645 ft 363 kts 87°
2026-05-05 06:26 41.20098 -72.43110 16172 ft 358 kts 87°
2026-05-05 06:26 41.20224 -72.39836 15701 ft 353 kts 87°
2026-05-05 06:26 41.20345 -72.36600 15235 ft 349 kts 87°
2026-05-05 06:26 41.20466 -72.33435 14783 ft 346 kts 87°
2026-05-05 06:27 41.20583 -72.30245 14321 ft 345 kts 87°
2026-05-05 06:27 41.20817 -72.23908 13408 ft 342 kts 87°
2026-05-05 06:27 41.20933 -72.20754 12953 ft 340 kts 87°
2026-05-05 06:28 41.21046 -72.17624 12502 ft 338 kts 87°
2026-05-05 06:28 41.21158 -72.14524 12055 ft 335 kts 87°
2026-05-05 06:28 41.21268 -72.11460 11612 ft 323 kts 87°
2026-05-05 06:28 41.21369 -72.08570 11191 ft 303 kts 87°
2026-05-05 06:29 41.21465 -72.05861 10801 ft 293 kts 87°
2026-05-05 06:29 41.21558 -72.03186 10417 ft 288 kts 87°
2026-05-05 06:29 41.21651 -72.00528 10040 ft 288 kts 87°
2026-05-05 06:29 41.21742 -71.97876 9661 ft 288 kts 87°
2026-05-05 06:30 41.21833 -71.95218 9278 ft 288 kts 87°
2026-05-05 06:30 41.21924 -71.92557 8895 ft 287 kts 87°
2026-05-05 06:30 41.22013 -71.89911 8513 ft 286 kts 87°
2026-05-05 06:30 41.22102 -71.87286 8134 ft 284 kts 87°
2026-05-05 06:31 41.22189 -71.84674 7758 ft 282 kts 87°
2026-05-05 06:31 41.22275 -71.82078 7384 ft 280 kts 87°
2026-05-05 06:31 41.22360 -71.79495 7012 ft 279 kts 88°
2026-05-05 06:31 41.22444 -71.76923 6642 ft 278 kts 87°
2026-05-05 06:32 41.22525 -71.74402 6279 ft 276 kts 88°
2026-05-05 06:32 41.22608 -71.71848 5919 ft 274 kts 87°
2026-05-05 06:32 41.22994 -71.69405 5541 ft 272 kts 62°
2026-05-05 06:32 41.24251 -71.67588 5192 ft 269 kts 31°
2026-05-05 06:33 41.26034 -71.67004 4919 ft 265 kts 356°
2026-05-05 06:33 41.27715 -71.67881 4760 ft 262 kts 320°
2026-05-05 06:33 41.28670 -71.69839 4675 ft 243 kts 285°
2026-05-05 06:33 41.28546 -71.71874 4581 ft 214 kts 244°
2026-05-05 06:34 41.27527 -71.73097 4514 ft 192 kts 198°
2026-05-05 06:34 41.26286 -71.72973 4472 ft 174 kts 159°
2026-05-05 06:34 41.25284 -71.72213 4434 ft 162 kts 140°
2026-05-05 06:34 41.24426 -71.71282 4409 ft 159 kts 147°
2026-05-05 06:35 41.23432 -71.70618 4345 ft 162 kts 161°
2026-05-05 06:35 41.22326 -71.70388 4160 ft 163 kts 169°
2026-05-05 06:35 41.21237 -71.70455 4005 ft 159 kts 211°
2026-05-05 06:35 41.20690 -71.71652 3834 ft 153 kts 263°
2026-05-05 06:36 41.20541 -71.72976 3652 ft 140 kts 255°
2026-05-05 06:36 41.20166 -71.74144 3488 ft 139 kts 234°
2026-05-05 06:36 41.19535 -71.75117 3347 ft 136 kts 229°
2026-05-05 06:36 41.18939 -71.76001 3152 ft 122 kts 228°
2026-05-05 06:37 41.18386 -71.76797 2967 ft 114 kts 228°
2026-05-05 06:37 41.17847 -71.77564 2836 ft 115 kts 227°
2026-05-05 06:37 41.17301 -71.78347 2695 ft 116 kts 227°
2026-05-05 06:37 41.16754 -71.79125 2540 ft 115 kts 228°
2026-05-05 06:38 41.16211 -71.79896 2388 ft 114 kts 227°
2026-05-05 06:38 41.15673 -71.80666 2237 ft 113 kts 227°
2026-05-05 06:38 41.15137 -71.81428 2088 ft 113 kts 228°
2026-05-05 06:38 41.14600 -71.82190 1939 ft 113 kts 227°
2026-05-05 06:39 41.14066 -71.82953 1789 ft 113 kts 227°
2026-05-05 06:39 41.13529 -71.83714 1640 ft 113 kts 228°
2026-05-05 06:39 41.13001 -71.84466 1486 ft 112 kts 227°
2026-05-05 06:39 41.12470 -71.85225 1343 ft 112 kts 228°
2026-05-05 06:40 41.11938 -71.85979 1191 ft 112 kts 228°
2026-05-05 06:40 41.11410 -71.86732 1044 ft 111 kts 227°
2026-05-05 06:40 41.10883 -71.87484 896 ft 111 kts 228°
2026-05-05 06:40 41.10354 -71.88232 747 ft 111 kts 228°
2026-05-05 06:41 41.09827 -71.88984 601 ft 111 kts 227°
2026-05-05 06:41 41.09301 -71.89734 452 ft 111 kts 228°
2026-05-05 06:41 41.08775 -71.90479 305 ft 111 kts 227°
2026-05-05 06:41 41.08251 -71.91226 157 ft 110 kts 227°
2026-05-05 06:42 41.07737 -71.91957 14 ft 105 kts 227°
2026-05-05 06:42 41.07386 -71.92448 14 ft 40 kts 226°
2026-05-05 06:42 41.07324 -71.92499 11 ft 0 kts 130°